Location: Ch�ze
(42.9000°N, 0.0333°W)
Time: 23:23:35
(UTC+00:00)

CREW DRAGON DEMO-1 DEB - Pass Details

Date: 24 January 2021
Orbit: 336 x 340 km, 51.6° (Epoch: 24 February)

Event Time Altitude Azimuth Distance (km) Brightness Sun altitude
Rises 17:27:52 0° 306° (NW) 2,168 7.2 -5.1°
Reaches altitude 10° 17:29:58 10° 315° (NW) 1,318 5.9 -5.4°
Maximum altitude 17:32:45 38° 26° (NNE) 552 3.3 -5.9°
Drops below altitude 10° 17:35:30 10° 97° (E) 1,301 5.0 -6.4°
Enters shadow 17:36:21 - 102° (ESE) 1,637 5.5 -6.5°
